CW5557 Weather Reports


Display with metric or nautical units.
time (UTC)temp
F
wind
direction
speed
MPH
gust
MPH
rain 1hr
in
rain 24hr
in
rain mn
in
humidity
%
barometer
mb
20170329030718 66 107 0.0 2.0 0.00 0.00 0.00 93 1018.1
20170329024710 67 107 0.0 2.0 0.00 0.00 0.00 92 1018.2
20170329023711 67 38 0.0 3.0 0.00 0.00 0.00 92 1017.9
20170329021710 67 38 1.0 2.0 0.00 0.00 0.00 93 1017.9
20170329020710 67 38 0.0 1.0 0.00 0.00 0.00 92 1017.9
20170329014715 67 38 0.0 2.0 0.00 0.00 0.00 92 1017.5
20170329013710 67 42 2.0 5.0 0.00 0.00 0.00 92 1017.5
20170329003710 68 43 3.0 5.0 0.00 0.00 0.00 91 1016.2
20170329001710 68 63 3.0 5.0 0.00 0.00 0.00 90 1015.9
20170329000711 68 47 2.0 3.0 0.00 0.00 0.00 90 1015.9
20170328231710 69 36 5.0 6.0 0.00 0.00 0.00 89 1015.5
20170328230710 69 25 4.0 6.0 0.00 0.00 0.00 88 1014.7
20170328224710 70 16 1.0 8.0 0.00 0.00 0.00 86 1014.7
20170328223710 70 38 3.0 5.0 0.00 0.00 0.00 86 1014.7
20170328221711 71 62 2.0 5.0 0.00 0.00 0.00 84 1014.7
20170328220710 72 66 1.0 3.0 0.00 0.00 0.00 83 1014.6
20170328214710 72 126 0.0 3.0 0.00 0.00 0.00 83 1014.6
20170328213709 72 148 0.0 3.0 0.00 0.00 0.00 82 1014.6
20170328211711 73 158 1.0 3.0 0.00 0.00 0.00 80 1014.7
20170328210711 73 144 2.0 9.0 0.00 0.00 0.00 79 1014.7
20170328204709 74 129 3.0 12.0 0.00 0.00 0.00 75 1014.7
20170328203710 75 120 3.0 7.0 0.00 0.00 0.00 73 1014.7
20170328201710 77 209 2.0 9.0 0.00 0.00 0.00 69 1014.8
20170328200712 76 212 2.0 9.0 0.00 0.00 0.00 72 1014.9
20170328194710 76 241 3.0 7.0 0.00 0.00 0.00 71 1014.9
20170328193711 77 251 3.0 9.0 0.00 0.00 0.00 70 1014.9
20170328191709 77 234 3.0 7.0 0.00 0.00 0.00 68 1015.6
20170328190711 77 317 2.0 10.0 0.00 0.00 0.00 70 1015.6
20170328184710 77 156 3.0 9.0 0.00 0.00 0.00 71 1015.9
20170328183711 76 235 3.0 9.0 0.00 0.00 0.00 73 1015.9
20170328181709 76 208 2.0 6.0 0.00 0.00 0.00 73 1016.4
20170328180712 76 244 3.0 12.0 0.00 0.00 0.00 74 1016.4
20170328174710 74 171 1.0 7.0 0.00 0.00 0.00 78 1017.0
20170328173709 74 151 2.0 8.0 0.00 0.00 0.00 80 1017.0
20170328171710 73 244 2.0 7.0 0.00 0.00 0.00 81 1017.5
20170328170710 72 155 2.0 8.0 0.00 0.00 0.00 82 1017.5
20170328154714 71 256 2.0 6.0 0.00 0.00 0.00 86 1018.4
20170328153710 70 250 2.0 6.0 0.00 0.00 0.00 87 1018.9
20170328151709 69 229 1.0 3.0 0.00 0.00 0.00 89 1018.9
20170328150709 68 149 1.0 6.0 0.00 0.00 0.00 90 1018.9
20170328144710 68 212 1.0 6.0 0.00 0.00 0.00 91 1018.9
20170328143712 68 250 1.0 6.0 0.00 0.00 0.00 90 1018.9
20170328141709 70 231 1.0 5.0 0.00 0.00 0.00 85 1018.8
20170328140709 70 201 1.0 6.0 0.00 0.00 0.00 85 1018.8
20170328134711 71 211 2.0 6.0 0.00 0.00 0.00 85 1018.8
20170328133710 70 178 1.0 3.0 0.00 0.00 0.00 86 1018.8
20170328131710 68 218 1.0 3.0 0.00 0.00 0.00 89 1018.6
20170328130712 68 215 1.0 3.0 0.00 0.00 0.00 90 1018.5
20170328124710 66 165 0.0 3.0 0.00 0.00 0.00 91 1018.0
20170328123710 66 165 0.0 2.0 0.00 0.00 0.00 92 1018.0
20170328121710 65 57 0.0 1.0 0.00 0.00 0.00 91 1017.9
20170328120709 65 57 0.0 3.0 0.00 0.00 0.00 91 1017.7
20170328114710 64 146 0.0 2.0 0.00 0.00 0.00 92 1017.3
20170328113710 64 146 0.0 3.0 0.00 0.00 0.00 92 1017.3
20170328111710 63 57 2.0 3.0 0.00 0.00 0.00 92 1017.2
20170328110709 63 105 0.0 0.0 0.00 0.00 0.00 92 1016.1
20170328104710 62 105 0.0 0.0 0.00 0.00 0.00 92 1016.1
20170328103711 62 105 0.0 2.0 0.00 0.00 0.00 92 1016.1
20170328101709 62 59 2.0 3.0 0.00 0.00 0.00 93 1015.9
20170328100711 62 59 2.0 3.0 0.00 0.00 0.00 93 1015.8
20170328094711 62 52 3.0 5.0 0.00 0.00 0.00 92 1015.7
20170328093709 62 57 3.0 5.0 0.00 0.00 0.00 92 1015.7
20170328091711 62 48 3.0 5.0 0.00 0.00 0.00 92 1015.8
20170328090710 63 135 1.0 3.0 0.00 0.00 0.00 91 1015.8
20170328084710 63 161 2.0 3.0 0.00 0.00 0.00 90 1015.5
20170328083711 63 60 2.0 3.0 0.00 0.00 0.00 89 1015.5
20170328081710 64 67 2.0 3.0 0.00 0.00 0.00 88 1015.4
20170328080711 64 67 3.0 5.0 0.00 0.00 0.00 87 1015.3
20170328074710 65 55 1.0 2.0 0.00 0.00 0.00 81 1015.2
20170328073710 65 55 0.0 5.0 0.00 0.00 0.00 81 1015.2
20170328071710 66 40 3.0 5.0 0.00 0.00 0.00 82 1015.2
20170328070709 66 53 3.0 6.0 0.00 0.00 0.00 82 1015.2
20170328064709 66 43 3.0 5.0 0.00 0.00 0.00 83 1015.4
20170328063709 66 27 5.0 6.0 0.00 0.00 0.00 83 1015.6
20170328061710 66 44 3.0 5.0 0.00 0.00 0.00 84 1015.6
20170328060710 66 59 1.0 3.0 0.00 0.00 0.00 84 1015.6
20170328054710 65 55 3.0 5.0 0.00 0.00 0.00 84 1015.8
20170328053710 65 51 4.0 5.0 0.00 0.00 0.00 85 1016.1
20170328044710 64 59 4.0 5.0 0.00 0.00 0.00 87 1016.8
20170328043711 63 52 5.0 6.0 0.00 0.00 0.00 88 1016.8
20170328041711 63 53 3.0 3.0 0.00 0.00 0.00 89 1016.9
20170328040711 63 48 3.0 5.0 0.00 0.00 0.00 89 1016.7
20170328034711 64 44 2.0 6.0 0.00 0.00 0.00 89 1017.7
20170328033711 64 43 3.0 6.0 0.00 0.00 0.00 89 1017.7
20170328031711 65 56 3.0 3.0 0.00 0.00 0.00 90 1017.7